Time,TemperatureF,DewpointF,PressureIn,WindDirection,WindDirectionDegrees,WindSpeedMPH,WindSpeedGustMPH,Humidity,HourlyPrecipIn,Conditions,Clouds,dailyrainin,SoftwareType,DateUTC
2013-01-09 00:00:00,41.0,34.2,0.00,NW,315,0.0,0.0,77,0.00,,,0.00,WUHU216HW,2013-01-09 05:00:00,
2013-01-09 00:01:00,41.0,34.2,0.00,NW,315,0.0,0.0,77,0.00,,,0.00,WUHU216HW,2013-01-09 05:01:00,
2013-01-09 00:02:00,41.0,34.2,0.00,NW,315,0.0,0.0,77,0.00,,,0.00,WUHU216HW,2013-01-09 05:02:00,
2013-01-09 00:03:00,41.0,34.2,0.00,NW,315,0.0,0.0,77,0.00,,,0.00,WUHU216HW,2013-01-09 05:03:00,
2013-01-09 00:08:00,40.8,34.0,0.00,NW,315,0.0,0.0,77,0.00,,,0.00,WUHU216HW,2013-01-09 05:08:00,
2013-01-09 00:13:00,40.8,34.4,0.00,NW,315,0.0,0.0,78,0.00,,,0.00,WUHU216HW,2013-01-09 05:13:00,
2013-01-09 00:18:00,40.8,34.4,0.00,NW,315,0.0,0.0,78,0.00,,,0.00,WUHU216HW,2013-01-09 05:18:00,
2013-01-09 00:23:00,40.8,34.4,0.00,NW,315,0.0,0.0,78,0.00,,,0.00,WUHU216HW,2013-01-09 05:23:00,
2013-01-09 00:28:00,40.8,34.4,0.00,NW,315,0.0,0.0,78,0.00,,,0.00,WUHU216HW,2013-01-09 05:28:00,
2013-01-09 00:33:00,40.8,34.4,0.00,NW,315,0.0,0.0,78,0.00,,,0.00,WUHU216HW,2013-01-09 05:33:00,
2013-01-09 00:38:00,40.8,34.2,0.00,NW,315,0.0,0.0,78,0.00,,,0.00,WUHU216HW,2013-01-09 05:38:00,
2013-01-09 00:43:00,40.6,34.2,0.00,NW,315,0.0,0.0,78,0.00,,,0.00,WUHU216HW,2013-01-09 05:43:00,
2013-01-09 00:48:00,40.6,34.2,0.00,NW,315,0.0,0.0,78,0.00,,,0.00,WUHU216HW,2013-01-09 05:48:00,
2013-01-09 00:53:00,40.8,34.7,0.00,NW,315,0.0,0.0,78,0.00,,,0.00,WUHU216HW,2013-01-09 05:53:00,
2013-01-09 00:58:00,40.8,34.7,0.00,NW,315,0.0,0.0,79,0.00,,,0.00,WUHU216HW,2013-01-09 05:58:00,
2013-01-09 01:03:00,40.8,34.7,0.00,NW,315,0.0,0.0,79,0.00,,,0.00,WUHU216HW,2013-01-09 06:03:00,
2013-01-09 01:08:00,40.8,34.7,0.00,NW,315,0.0,0.0,79,0.00,,,0.00,WUHU216HW,2013-01-09 06:08:00,
2013-01-09 01:13:00,41.1,35.0,0.00,NW,315,0.0,0.0,79,0.00,,,0.00,WUHU216HW,2013-01-09 06:13:00,
2013-01-09 01:18:00,41.1,35.0,0.00,NW,315,0.0,0.0,79,0.00,,,0.00,WUHU216HW,2013-01-09 06:18:00,
2013-01-09 01:23:00,41.1,35.0,0.00,NW,315,0.0,0.0,79,0.00,,,0.00,WUHU216HW,2013-01-09 06:23:00,
2013-01-09 01:28:00,41.3,35.2,0.00,NW,315,0.0,0.0,79,0.00,,,0.00,WUHU216HW,2013-01-09 06:28:00,
2013-01-09 01:33:00,41.3,35.2,0.00,NW,315,0.0,0.0,79,0.00,,,0.00,WUHU216HW,2013-01-09 06:33:00,
2013-01-09 01:38:00,41.3,35.2,0.00,NW,315,0.0,0.0,79,0.00,,,0.00,WUHU216HW,2013-01-09 06:38:00,
2013-01-09 01:43:00,41.3,35.2,0.00,NW,315,0.0,0.0,79,0.00,,,0.00,WUHU216HW,2013-01-09 06:43:00,
2013-01-09 01:48:00,41.5,35.4,0.00,NW,315,0.0,0.0,79,0.00,,,0.00,WUHU216HW,2013-01-09 06:48:00,
2013-01-09 01:53:00,41.5,35.7,0.00,NW,315,0.0,0.0,80,0.00,,,0.00,WUHU216HW,2013-01-09 06:53:00,
2013-01-09 01:58:00,41.5,35.7,0.00,NW,315,0.0,0.0,80,0.00,,,0.00,WUHU216HW,2013-01-09 06:58:00,
2013-01-09 02:03:00,41.5,35.7,0.00,NW,315,0.0,0.0,80,0.00,,,0.00,WUHU216HW,2013-01-09 07:03:00,
2013-01-09 02:08:00,41.7,35.9,0.00,NW,315,0.0,0.0,80,0.00,,,0.00,WUHU216HW,2013-01-09 07:08:00,
2013-01-09 02:13:00,41.7,35.6,0.00,NW,315,0.0,0.0,79,0.00,,,0.00,WUHU216HW,2013-01-09 07:13:00,
2013-01-09 02:18:00,41.7,35.9,0.00,NW,315,0.0,0.0,80,0.00,,,0.00,WUHU216HW,2013-01-09 07:18:00,
2013-01-09 02:23:00,41.7,35.9,0.00,NW,315,0.0,0.0,80,0.00,,,0.00,WUHU216HW,2013-01-09 07:23:00,
2013-01-09 02:28:00,41.9,36.1,0.00,NW,315,0.0,0.0,80,0.00,,,0.00,WUHU216HW,2013-01-09 07:28:00,
2013-01-09 02:33:00,41.9,35.8,0.00,NW,315,0.0,0.0,79,0.00,,,0.00,WUHU216HW,2013-01-09 07:33:00,
2013-01-09 02:38:00,41.9,35.8,0.00,NW,315,0.0,0.0,79,0.00,,,0.00,WUHU216HW,2013-01-09 07:38:00,
2013-01-09 02:43:00,41.9,35.8,0.00,NW,315,0.0,0.0,79,0.00,,,0.00,WUHU216HW,2013-01-09 07:43:00,
2013-01-09 02:48:00,41.9,35.8,0.00,NW,315,0.0,0.0,79,0.00,,,0.00,WUHU216HW,2013-01-09 07:48:00,
2013-01-09 02:53:00,41.9,35.8,0.00,NW,315,0.0,0.0,79,0.00,,,0.00,WUHU216HW,2013-01-09 07:53:00,
2013-01-09 02:58:00,41.9,35.8,0.00,NW,315,0.0,0.0,79,0.00,,,0.00,WUHU216HW,2013-01-09 07:58:00,
2013-01-09 03:03:00,42.0,35.9,0.00,NW,315,0.0,0.0,79,0.00,,,0.00,WUHU216HW,2013-01-09 08:03:00,
2013-01-09 03:08:00,42.0,35.9,0.00,NW,315,0.0,0.0,79,0.00,,,0.00,WUHU216HW,2013-01-09 08:08:00,
2013-01-09 03:13:00,42.0,35.9,0.00,NW,315,0.0,0.0,79,0.00,,,0.00,WUHU216HW,2013-01-09 08:13:00,
2013-01-09 03:18:00,42.0,35.9,0.00,NW,315,0.0,0.0,79,0.00,,,0.00,WUHU216HW,2013-01-09 08:18:00,
2013-01-09 03:23:00,42.0,35.8,0.00,NW,315,0.0,0.0,79,0.00,,,0.00,WUHU216HW,2013-01-09 08:23:00,
2013-01-09 03:28:00,41.9,35.8,0.00,NW,315,0.0,0.0,79,0.00,,,0.00,WUHU216HW,2013-01-09 08:28:00,
2013-01-09 03:33:00,41.9,35.8,0.00,NW,315,0.0,0.0,79,0.00,,,0.00,WUHU216HW,2013-01-09 08:33:00,
2013-01-09 03:38:00,41.7,35.6,0.00,NW,315,0.0,0.0,79,0.00,,,0.00,WUHU216HW,2013-01-09 08:38:00,
2013-01-09 03:43:00,41.5,35.4,0.00,NW,315,0.0,0.0,79,0.00,,,0.00,WUHU216HW,2013-01-09 08:43:00,
2013-01-09 03:48:00,41.5,35.4,0.00,NW,315,0.0,0.0,79,0.00,,,0.00,WUHU216HW,2013-01-09 08:48:00,
2013-01-09 03:53:00,41.5,35.4,0.00,NW,315,0.0,0.0,79,0.00,,,0.00,WUHU216HW,2013-01-09 08:53:00,
2013-01-09 03:58:00,41.5,35.4,0.00,NW,315,0.0,0.0,79,0.00,,,0.00,WUHU216HW,2013-01-09 08:58:00,
2013-01-09 04:03:00,41.5,35.4,0.00,NW,315,0.0,0.0,79,0.00,,,0.00,WUHU216HW,2013-01-09 09:03:00,
2013-01-09 04:08:00,41.3,35.2,0.00,NW,315,0.0,0.0,79,0.00,,,0.00,WUHU216HW,2013-01-09 09:08:00,
2013-01-09 04:13:00,41.3,35.2,0.00,NW,315,0.0,0.0,79,0.00,,,0.00,WUHU216HW,2013-01-09 09:13:00,
2013-01-09 04:18:00,41.3,35.2,0.00,NW,315,0.0,0.0,79,0.00,,,0.00,WUHU216HW,2013-01-09 09:18:00,
2013-01-09 04:23:00,41.3,35.2,0.00,NW,315,0.0,0.0,79,0.00,,,0.00,WUHU216HW,2013-01-09 09:23:00,
2013-01-09 04:28:00,41.3,35.2,0.00,NW,315,0.0,0.0,79,0.00,,,0.00,WUHU216HW,2013-01-09 09:28:00,
2013-01-09 04:33:00,41.1,35.0,0.00,NW,315,0.0,0.0,79,0.00,,,0.00,WUHU216HW,2013-01-09 09:33:00,
2013-01-09 04:38:00,41.1,35.0,0.00,NW,315,0.0,0.0,79,0.00,,,0.00,WUHU216HW,2013-01-09 09:38:00,
2013-01-09 04:43:00,41.1,35.4,0.00,NW,315,0.0,0.0,80,0.00,,,0.00,WUHU216HW,2013-01-09 09:43:00,
2013-01-09 04:48:00,41.0,35.2,0.00,NW,315,0.0,0.0,80,0.00,,,0.00,WUHU216HW,2013-01-09 09:48:00,
2013-01-09 04:53:00,41.0,35.0,0.00,NW,315,0.0,0.0,80,0.00,,,0.00,WUHU216HW,2013-01-09 09:53:00,
2013-01-09 04:58:00,40.8,35.0,0.00,NW,315,0.0,0.0,80,0.00,,,0.00,WUHU216HW,2013-01-09 09:58:00,
2013-01-09 05:03:00,40.8,35.0,0.00,NW,315,0.0,0.0,80,0.00,,,0.00,WUHU216HW,2013-01-09 10:03:00,
2013-01-09 05:08:00,40.8,35.0,0.00,NW,315,0.0,0.0,80,0.00,,,0.00,WUHU216HW,2013-01-09 10:08:00,
2013-01-09 05:13:00,40.8,35.0,0.00,NW,315,0.0,0.0,80,0.00,,,0.00,WUHU216HW,2013-01-09 10:13:00,
2013-01-09 05:18:00,40.8,35.0,0.00,NW,315,0.0,0.0,80,0.00,,,0.00,WUHU216HW,2013-01-09 10:18:00,
2013-01-09 05:23:00,40.8,35.0,0.00,NW,315,0.0,0.0,80,0.00,,,0.00,WUHU216HW,2013-01-09 10:23:00,
2013-01-09 05:28:00,40.8,35.0,0.00,NW,315,0.0,0.0,80,0.00,,,0.00,WUHU216HW,2013-01-09 10:28:00,
2013-01-09 05:33:00,40.8,35.0,0.00,NW,315,0.0,0.0,80,0.00,,,0.00,WUHU216HW,2013-01-09 10:33:00,
2013-01-09 05:38:00,40.8,35.0,0.00,NW,315,0.0,0.0,80,0.00,,,0.00,WUHU216HW,2013-01-09 10:38:00,
2013-01-09 05:43:00,40.8,35.0,0.00,NW,315,0.0,0.0,80,0.00,,,0.00,WUHU216HW,2013-01-09 10:43:00,
2013-01-09 05:48:00,40.8,35.0,0.00,NW,315,0.0,0.0,80,0.00,,,0.00,WUHU216HW,2013-01-09 10:48:00,
2013-01-09 05:53:00,40.8,35.0,0.00,NW,315,0.0,0.0,80,0.00,,,0.00,WUHU216HW,2013-01-09 10:53:00,
2013-01-09 05:58:00,40.8,35.0,0.00,NW,315,0.0,0.0,80,0.00,,,0.00,WUHU216HW,2013-01-09 10:58:00,
2013-01-09 06:03:00,40.8,35.0,0.00,NW,315,0.0,0.0,80,0.00,,,0.00,WUHU216HW,2013-01-09 11:03:00,
2013-01-09 06:08:00,40.8,35.0,0.00,NW,315,0.0,0.0,80,0.00,,,0.00,WUHU216HW,2013-01-09 11:08:00,
2013-01-09 06:13:00,41.0,35.2,0.00,NW,315,0.0,0.0,80,0.00,,,0.00,WUHU216HW,2013-01-09 11:13:00,
2013-01-09 06:18:00,41.0,35.2,0.00,NW,315,0.0,0.0,80,0.00,,,0.00,WUHU216HW,2013-01-09 11:18:00,
2013-01-09 06:23:00,41.0,35.2,0.00,NW,315,0.0,0.0,80,0.00,,,0.00,WUHU216HW,2013-01-09 11:23:00,
2013-01-09 06:28:00,41.1,35.4,0.00,NW,315,0.0,0.0,80,0.00,,,0.00,WUHU216HW,2013-01-09 11:28:00,
2013-01-09 06:33:00,41.1,35.4,0.00,NW,315,0.0,0.0,80,0.00,,,0.00,WUHU216HW,2013-01-09 11:33:00,
2013-01-09 06:38:00,41.1,35.4,0.00,NW,315,0.0,0.0,80,0.00,,,0.00,WUHU216HW,2013-01-09 11:38:00,
2013-01-09 06:43:00,41.1,35.4,0.00,NW,315,0.0,0.0,80,0.00,,,0.00,WUHU216HW,2013-01-09 11:43:00,
2013-01-09 06:48:00,41.1,35.4,0.00,NW,315,0.0,0.0,80,0.00,,,0.00,WUHU216HW,2013-01-09 11:48:00,
2013-01-09 06:53:00,41.1,35.4,0.00,NW,315,0.0,0.0,80,0.00,,,0.00,WUHU216HW,2013-01-09 11:53:00,
2013-01-09 06:58:00,41.1,35.4,0.00,NW,315,0.0,0.0,80,0.00,,,0.00,WUHU216HW,2013-01-09 11:58:00,
2013-01-09 07:03:00,41.1,35.4,0.00,NW,315,0.0,0.0,80,0.00,,,0.00,WUHU216HW,2013-01-09 12:03:00,
2013-01-09 07:08:00,41.1,35.4,0.00,NW,315,0.0,0.0,80,0.00,,,0.00,WUHU216HW,2013-01-09 12:08:00,
2013-01-09 07:13:00,41.1,35.4,0.00,NW,315,0.0,0.0,80,0.00,,,0.00,WUHU216HW,2013-01-09 12:13:00,
2013-01-09 07:18:00,41.1,35.4,0.00,NW,315,0.0,0.0,80,0.00,,,0.00,WUHU216HW,2013-01-09 12:18:00,
2013-01-09 07:23:00,41.1,35.4,0.00,NW,315,0.0,0.0,80,0.00,,,0.00,WUHU216HW,2013-01-09 12:23:00,
2013-01-09 07:28:00,41.1,35.4,0.00,NW,315,0.0,0.0,80,0.00,,,0.00,WUHU216HW,2013-01-09 12:28:00,
2013-01-09 07:33:00,41.1,35.4,0.00,NW,315,0.0,0.0,80,0.00,,,0.00,WUHU216HW,2013-01-09 12:33:00,
2013-01-09 07:38:00,41.1,35.4,0.00,NW,315,0.0,0.0,80,0.00,,,0.00,WUHU216HW,2013-01-09 12:38:00,
2013-01-09 07:43:00,41.1,35.4,0.00,NW,315,0.0,0.0,80,0.00,,,0.00,WUHU216HW,2013-01-09 12:43:00,
2013-01-09 07:48:00,41.1,35.4,0.00,NW,315,0.0,0.0,80,0.00,,,0.00,WUHU216HW,2013-01-09 12:48:00,
2013-01-09 07:53:00,41.1,35.4,0.00,NW,315,0.0,0.0,80,0.00,,,0.00,WUHU216HW,2013-01-09 12:53:00,
2013-01-09 07:58:00,41.3,35.6,0.00,NW,315,0.0,0.0,80,0.00,,,0.00,WUHU216HW,2013-01-09 12:58:00,
2013-01-09 08:03:00,41.3,35.6,0.00,NW,315,0.0,0.0,80,0.00,,,0.00,WUHU216HW,2013-01-09 13:03:00,
2013-01-09 08:08:00,41.5,35.7,0.00,NW,315,0.0,0.0,80,0.00,,,0.00,WUHU216HW,2013-01-09 13:08:00,
2013-01-09 08:13:00,41.5,35.7,0.00,NW,315,0.0,0.0,80,0.00,,,0.00,WUHU216HW,2013-01-09 13:13:00,
2013-01-09 08:18:00,41.7,36.2,0.00,NW,315,0.0,0.0,81,0.00,,,0.00,WUHU216HW,2013-01-09 13:18:00,
2013-01-09 08:23:00,41.7,36.2,0.00,NW,315,0.0,0.0,81,0.00,,,0.00,WUHU216HW,2013-01-09 13:23:00,
2013-01-09 08:28:00,41.9,36.4,0.00,NW,315,0.0,0.0,81,0.00,,,0.00,WUHU216HW,2013-01-09 13:28:00,
2013-01-09 08:33:00,42.0,36.6,0.00,NW,315,0.0,0.0,81,0.00,,,0.00,WUHU216HW,2013-01-09 13:33:00,
2013-01-09 08:38:00,42.4,36.9,0.00,NW,315,0.0,0.0,81,0.00,,,0.00,WUHU216HW,2013-01-09 13:38:00,
2013-01-09 08:43:00,42.4,36.9,0.00,NW,315,0.0,0.0,81,0.00,,,0.00,WUHU216HW,2013-01-09 13:43:00,
2013-01-09 08:48:00,42.6,37.1,0.00,NW,315,0.0,0.0,81,0.00,,,0.00,WUHU216HW,2013-01-09 13:48:00,
2013-01-09 08:53:00,42.9,37.5,0.00,NW,315,0.0,0.0,81,0.00,,,0.00,WUHU216HW,2013-01-09 13:53:00,
2013-01-09 08:58:00,42.9,37.5,0.00,NW,315,0.0,0.0,81,0.00,,,0.00,WUHU216HW,2013-01-09 13:58:00,
2013-01-09 09:03:00,43.1,37.7,0.00,NW,315,0.0,0.0,81,0.00,,,0.00,WUHU216HW,2013-01-09 14:03:00,
2013-01-09 09:08:00,43.5,38.0,0.00,NW,315,0.0,0.0,81,0.00,,,0.00,WUHU216HW,2013-01-09 14:08:00,
2013-01-09 09:13:00,43.7,38.5,0.00,NW,315,0.0,0.0,82,0.00,,,0.00,WUHU216HW,2013-01-09 14:13:00,
2013-01-09 09:18:00,44.0,38.9,0.00,NW,315,0.0,0.0,82,0.00,,,0.00,WUHU216HW,2013-01-09 14:18:00,
2013-01-09 09:23:00,44.4,39.2,0.00,NW,315,0.0,0.0,82,0.00,,,0.00,WUHU216HW,2013-01-09 14:23:00,
2013-01-09 09:28:00,44.7,39.4,0.00,NW,315,0.0,0.0,82,0.00,,,0.00,WUHU216HW,2013-01-09 14:28:00,
2013-01-09 09:33:00,44.9,39.8,0.00,SSE,158,0.0,0.0,82,0.00,,,0.00,WUHU216HW,2013-01-09 14:33:00,
2013-01-09 09:38:00,44.9,39.8,0.00,SSE,158,0.0,0.0,82,0.00,,,0.00,WUHU216HW,2013-01-09 14:38:00,
2013-01-09 09:43:00,45.1,39.9,0.00,SSE,158,0.0,0.0,82,0.00,,,0.00,WUHU216HW,2013-01-09 14:43:00,
2013-01-09 09:48:00,45.1,39.9,0.00,SSE,158,0.0,0.0,82,0.00,,,0.00,WUHU216HW,2013-01-09 14:48:00,
2013-01-09 09:53:00,45.1,39.9,0.00,SSE,158,0.0,0.0,82,0.00,,,0.00,WUHU216HW,2013-01-09 14:53:00,
2013-01-09 09:58:00,45.1,39.6,0.00,SSE,158,0.0,0.0,81,0.00,,,0.00,WUHU216HW,2013-01-09 14:58:00,
2013-01-09 10:03:00,45.1,39.6,0.00,SSE,158,0.0,0.0,81,0.00,,,0.00,WUHU216HW,2013-01-09 15:03:00,
2013-01-09 10:08:00,45.1,39.6,0.00,North,0,0.0,0.0,81,0.00,,,0.00,WUHU216HW,2013-01-09 15:08:00,
2013-01-09 10:13:00,45.1,39.6,0.00,SSE,158,0.0,0.0,81,0.00,,,0.00,WUHU216HW,2013-01-09 15:13:00,
2013-01-09 10:18:00,45.1,39.6,0.00,SSE,158,0.0,0.0,81,0.00,,,0.00,WUHU216HW,2013-01-09 15:18:00,
2013-01-09 10:23:00,45.1,39.6,0.00,SSE,158,0.0,0.0,81,0.00,,,0.00,WUHU216HW,2013-01-09 15:23:00,
2013-01-09 10:28:00,45.1,39.6,0.00,SSE,158,0.0,0.0,81,0.00,,,0.00,WUHU216HW,2013-01-09 15:28:00,
2013-01-09 10:33:00,45.1,39.8,0.00,SSE,158,0.0,0.0,81,0.00,,,0.00,WUHU216HW,2013-01-09 15:33:00,
2013-01-09 10:38:00,45.3,39.8,0.00,SSE,158,0.0,0.0,81,0.00,,,0.00,WUHU216HW,2013-01-09 15:38:00,
2013-01-09 10:43:00,45.3,39.8,0.00,SSE,158,0.0,0.0,81,0.00,,,0.00,WUHU216HW,2013-01-09 15:43:00,
2013-01-09 10:48:00,45.3,39.8,0.00,SSE,158,0.0,0.0,81,0.00,,,0.00,WUHU216HW,2013-01-09 15:48:00,
2013-01-09 10:53:00,45.3,39.8,0.00,SSE,158,0.0,0.0,81,0.00,,,0.00,WUHU216HW,2013-01-09 15:53:00,
2013-01-09 10:58:00,45.3,39.8,0.00,SSE,158,0.0,0.0,81,0.00,,,0.00,WUHU216HW,2013-01-09 15:58:00,
2013-01-09 11:03:00,45.5,40.0,0.00,SSE,158,0.0,0.0,81,0.00,,,0.00,WUHU216HW,2013-01-09 16:03:00,
2013-01-09 11:08:00,45.5,40.0,0.00,SSE,158,0.0,0.0,81,0.00,,,0.00,WUHU216HW,2013-01-09 16:08:00,
2013-01-09 11:13:00,45.5,40.0,0.00,SSE,158,0.0,0.0,81,0.00,,,0.00,WUHU216HW,2013-01-09 16:13:00,
2013-01-09 11:18:00,45.6,40.2,0.00,SSE,158,0.0,0.0,81,0.00,,,0.00,WUHU216HW,2013-01-09 16:18:00,
2013-01-09 11:23:00,45.6,40.2,0.00,SSE,158,0.0,0.0,81,0.00,,,0.00,WUHU216HW,2013-01-09 16:23:00,
2013-01-09 11:28:00,45.6,40.2,0.00,SSE,158,0.0,0.0,81,0.00,,,0.00,WUHU216HW,2013-01-09 16:28:00,
2013-01-09 11:33:00,45.6,40.2,0.00,SSE,158,0.0,0.0,81,0.00,,,0.00,WUHU216HW,2013-01-09 16:33:00,
2013-01-09 11:38:00,45.6,40.2,0.00,SSE,158,0.0,0.0,81,0.00,,,0.00,WUHU216HW,2013-01-09 16:38:00,
2013-01-09 11:43:00,45.6,40.2,0.00,North,0,0.0,0.0,81,0.00,,,0.00,WUHU216HW,2013-01-09 16:43:00,
2013-01-09 11:48:00,45.6,40.2,0.00,SSE,158,0.0,0.0,81,0.00,,,0.00,WUHU216HW,2013-01-09 16:48:00,
2013-01-09 11:53:00,45.6,40.2,0.00,SSE,158,0.0,0.0,81,0.00,,,0.00,WUHU216HW,2013-01-09 16:53:00,
2013-01-09 11:58:00,45.6,40.2,0.00,SSE,158,0.0,0.0,81,0.00,,,0.00,WUHU216HW,2013-01-09 16:58:00,
2013-01-09 12:03:00,45.6,40.2,0.00,SSE,158,0.0,0.0,81,0.00,,,0.00,WUHU216HW,2013-01-09 17:03:00,
2013-01-09 12:08:00,45.8,40.4,0.00,SSE,158,0.0,0.0,81,0.00,,,0.00,WUHU216HW,2013-01-09 17:08:00,
2013-01-09 12:13:00,45.8,40.4,0.00,SSE,158,0.0,0.0,81,0.00,,,0.00,WUHU216HW,2013-01-09 17:13:00,
2013-01-09 12:18:00,46.0,40.5,0.00,SSE,158,0.0,0.0,81,0.00,,,0.00,WUHU216HW,2013-01-09 17:18:00,
2013-01-09 12:23:00,46.0,40.5,0.00,SSE,158,0.0,0.0,81,0.00,,,0.00,WUHU216HW,2013-01-09 17:23:00,
2013-01-09 12:28:00,46.0,40.5,0.00,SSE,158,0.0,0.0,81,0.00,,,0.00,WUHU216HW,2013-01-09 17:28:00,
2013-01-09 12:33:00,46.0,40.5,0.00,SSE,158,0.0,0.0,81,0.00,,,0.00,WUHU216HW,2013-01-09 17:33:00,
2013-01-09 12:38:00,46.0,40.5,0.00,SSE,158,0.0,0.0,81,0.00,,,0.00,WUHU216HW,2013-01-09 17:38:00,
2013-01-09 12:43:00,46.0,40.5,0.00,SSE,158,0.0,0.0,81,0.00,,,0.00,WUHU216HW,2013-01-09 17:43:00,
2013-01-09 12:48:00,46.0,40.5,0.00,SSE,158,0.0,0.0,81,0.00,,,0.00,WUHU216HW,2013-01-09 17:48:00,
2013-01-09 12:53:00,46.0,40.5,0.00,SSE,158,0.0,0.0,81,0.00,,,0.00,WUHU216HW,2013-01-09 17:53:00,
2013-01-09 12:58:00,46.2,40.7,0.00,SSE,158,0.0,0.0,81,0.00,,,0.00,WUHU216HW,2013-01-09 17:58:00,
2013-01-09 13:03:00,46.2,40.7,0.00,SSE,158,0.0,0.0,81,0.00,,,0.00,WUHU216HW,2013-01-09 18:03:00,
2013-01-09 13:08:00,46.2,40.5,0.00,SSE,158,0.0,0.0,81,0.00,,,0.00,WUHU216HW,2013-01-09 18:08:00,
2013-01-09 13:13:00,46.2,40.7,0.00,SSE,158,0.0,0.0,81,0.00,,,0.00,WUHU216HW,2013-01-09 18:13:00,
2013-01-09 13:18:00,46.2,40.7,0.00,SSE,158,0.0,0.0,81,0.00,,,0.00,WUHU216HW,2013-01-09 18:18:00,
2013-01-09 13:23:00,46.2,40.7,0.00,SSE,158,0.0,0.0,81,0.00,,,0.00,WUHU216HW,2013-01-09 18:23:00,
2013-01-09 13:28:00,46.2,40.7,0.00,SSE,158,0.0,0.0,81,0.00,,,0.00,WUHU216HW,2013-01-09 18:28:00,
2013-01-09 13:33:00,46.2,40.7,0.00,SSE,158,0.0,0.0,81,0.00,,,0.00,WUHU216HW,2013-01-09 18:33:00,
2013-01-09 13:38:00,46.2,40.7,0.00,SSE,158,0.0,0.0,81,0.00,,,0.00,WUHU216HW,2013-01-09 18:38:00,
2013-01-09 13:41:00,46.2,40.7,0.00,SSE,158,0.0,0.0,81,0.00,,,0.00,WUHU216HW,2013-01-09 18:41:00,
2013-01-09 13:42:00,46.2,40.7,0.00,SSE,158,0.0,0.0,81,0.00,,,0.00,WUHU216HW,2013-01-09 18:42:00,
2013-01-09 13:44:00,46.2,40.7,0.00,SSE,158,0.0,0.0,81,0.00,,,0.00,WUHU216HW,2013-01-09 18:44:00,
2013-01-09 13:45:00,46.2,40.7,0.00,SSE,158,0.0,0.0,81,0.00,,,0.00,WUHU216HW,2013-01-09 18:45:00,
2013-01-09 13:48:00,46.2,40.7,0.00,SSE,158,0.0,0.0,81,0.00,,,0.00,WUHU216HW,2013-01-09 18:48:00,
2013-01-09 13:49:00,46.2,40.7,0.00,SSE,158,0.0,0.0,81,0.00,,,0.00,WUHU216HW,2013-01-09 18:49:00,
2013-01-09 13:54:00,46.2,40.7,0.00,SSE,158,0.0,0.0,81,0.00,,,0.00,WUHU216HW,2013-01-09 18:54:00,
2013-01-09 13:59:00,46.2,40.7,0.00,SSE,158,0.0,0.0,81,0.00,,,0.00,WUHU216HW,2013-01-09 18:59:00,
2013-01-09 14:04:00,46.4,40.9,0.00,SSE,158,0.0,0.0,81,0.00,,,0.00,WUHU216HW,2013-01-09 19:04:00,
2013-01-09 14:09:00,46.4,40.9,0.00,SSE,158,0.0,0.0,81,0.00,,,0.00,WUHU216HW,2013-01-09 19:09:00,
2013-01-09 14:14:00,46.4,40.9,0.00,SSE,158,0.0,0.0,81,0.00,,,0.00,WUHU216HW,2013-01-09 19:14:00,
2013-01-09 14:19:00,46.5,41.1,0.00,SSE,158,0.0,0.0,81,0.00,,,0.00,WUHU216HW,2013-01-09 19:19:00,
2013-01-09 14:24:00,46.5,41.1,0.00,SSE,158,0.0,0.0,81,0.00,,,0.00,WUHU216HW,2013-01-09 19:24:00,
2013-01-09 14:29:00,46.5,41.1,0.00,SSE,158,0.0,0.0,81,0.00,,,0.00,WUHU216HW,2013-01-09 19:29:00,
2013-01-09 14:34:00,46.5,41.4,0.00,SSE,158,0.0,0.0,82,0.00,,,0.00,WUHU216HW,2013-01-09 19:34:00,
2013-01-09 14:39:00,46.5,41.4,0.00,SSE,158,0.0,0.0,82,0.00,,,0.00,WUHU216HW,2013-01-09 19:39:00,
2013-01-09 14:44:00,46.5,41.4,0.00,SSE,158,0.0,0.0,82,0.00,,,0.00,WUHU216HW,2013-01-09 19:44:00,
2013-01-09 14:49:00,46.5,41.4,0.00,SSE,158,0.0,0.0,82,0.00,,,0.00,WUHU216HW,2013-01-09 19:49:00,
2013-01-09 14:54:00,46.5,41.4,0.00,SSE,158,0.0,0.0,82,0.00,,,0.00,WUHU216HW,2013-01-09 19:54:00,
2013-01-09 14:59:00,46.5,41.4,0.00,SSE,158,0.0,0.0,82,0.00,,,0.00,WUHU216HW,2013-01-09 19:59:00,
2013-01-09 15:04:00,46.7,41.5,0.00,SSE,158,0.0,0.0,82,0.00,,,0.00,WUHU216HW,2013-01-09 20:04:00,
2013-01-09 15:09:00,46.7,41.5,0.00,SSE,158,0.0,0.0,82,0.00,,,0.00,WUHU216HW,2013-01-09 20:09:00,
2013-01-09 15:14:00,46.9,41.7,0.00,SSE,158,0.0,0.0,82,0.00,,,0.00,WUHU216HW,2013-01-09 20:14:00,
2013-01-09 15:19:00,46.9,41.7,0.00,SSE,158,0.0,0.0,82,0.00,,,0.00,WUHU216HW,2013-01-09 20:19:00,
2013-01-09 15:24:00,47.1,41.9,0.00,SSE,158,0.0,0.0,82,0.00,,,0.00,WUHU216HW,2013-01-09 20:24:00,
2013-01-09 15:29:00,47.3,42.0,0.00,SSE,158,0.0,0.0,82,0.00,,,0.00,WUHU216HW,2013-01-09 20:29:00,
2013-01-09 15:34:00,47.4,42.2,0.00,SSE,158,0.0,0.0,82,0.00,,,0.00,WUHU216HW,2013-01-09 20:34:00,
2013-01-09 15:39:00,47.4,42.2,0.00,SSE,158,0.0,0.0,82,0.00,,,0.00,WUHU216HW,2013-01-09 20:39:00,
2013-01-09 15:44:00,47.6,42.4,0.00,SSE,158,0.0,0.0,82,0.00,,,0.00,WUHU216HW,2013-01-09 20:44:00,
2013-01-09 15:49:00,47.8,42.5,0.00,SSE,158,0.0,0.0,82,0.00,,,0.00,WUHU216HW,2013-01-09 20:49:00,
2013-01-09 15:54:00,48.0,42.7,0.00,SSE,158,0.0,0.0,82,0.00,,,0.00,WUHU216HW,2013-01-09 20:54:00,
2013-01-09 15:59:00,48.0,42.7,0.00,SSE,158,0.0,0.0,82,0.00,,,0.00,WUHU216HW,2013-01-09 20:59:00,
2013-01-09 16:04:00,48.0,42.7,0.00,SSE,158,0.0,0.0,82,0.00,,,0.00,WUHU216HW,2013-01-09 21:04:00,
2013-01-09 16:09:00,48.0,42.7,0.00,SSE,158,0.0,0.0,82,0.00,,,0.00,WUHU216HW,2013-01-09 21:09:00,
2013-01-09 16:14:00,48.0,42.7,0.00,SSE,158,0.0,0.0,82,0.00,,,0.00,WUHU216HW,2013-01-09 21:14:00,
2013-01-09 16:19:00,48.2,42.9,0.00,SSE,158,0.0,0.0,82,0.00,,,0.00,WUHU216HW,2013-01-09 21:19:00,
2013-01-09 16:24:00,48.3,42.9,0.00,SSE,158,0.0,0.0,82,0.00,,,0.00,WUHU216HW,2013-01-09 21:24:00,
2013-01-09 16:29:00,48.3,43.0,0.00,SSE,158,0.0,0.0,82,0.00,,,0.00,WUHU216HW,2013-01-09 21:29:00,
2013-01-09 16:34:00,48.3,43.0,0.00,SSE,158,0.0,0.0,82,0.00,,,0.00,WUHU216HW,2013-01-09 21:34:00,
2013-01-09 16:39:00,48.3,43.0,0.00,SSE,158,0.0,0.0,82,0.00,,,0.00,WUHU216HW,2013-01-09 21:39:00,
2013-01-09 16:44:00,48.3,43.0,0.00,SSE,158,0.0,0.0,82,0.00,,,0.00,WUHU216HW,2013-01-09 21:44:00,
2013-01-09 16:49:00,48.3,43.0,0.00,SSE,158,0.0,0.0,82,0.00,,,0.00,WUHU216HW,2013-01-09 21:49:00,
2013-01-09 16:54:00,48.3,43.0,0.00,SSE,158,0.0,0.0,82,0.00,,,0.00,WUHU216HW,2013-01-09 21:54:00,
2013-01-09 16:59:00,48.3,43.0,0.00,SSE,158,0.0,0.0,82,0.00,,,0.00,WUHU216HW,2013-01-09 21:59:00,
2013-01-09 17:04:00,48.3,43.0,0.00,SSE,158,0.0,0.0,82,0.00,,,0.00,WUHU216HW,2013-01-09 22:04:00,
2013-01-09 17:09:00,48.3,43.0,0.00,SSE,158,0.0,0.0,82,0.00,,,0.00,WUHU216HW,2013-01-09 22:09:00,
2013-01-09 17:14:00,48.3,43.0,0.00,SSE,158,0.0,0.0,82,0.00,,,0.00,WUHU216HW,2013-01-09 22:14:00,
2013-01-09 17:19:00,48.2,42.9,0.00,SSE,158,0.0,0.0,82,0.00,,,0.00,WUHU216HW,2013-01-09 22:19:00,
2013-01-09 17:24:00,48.0,42.7,0.00,SSE,158,0.0,0.0,82,0.00,,,0.00,WUHU216HW,2013-01-09 22:24:00,
2013-01-09 17:29:00,48.0,42.7,0.00,SSE,158,0.0,0.0,82,0.00,,,0.00,WUHU216HW,2013-01-09 22:29:00,
2013-01-09 17:34:00,47.8,42.5,0.00,SSE,158,0.0,0.0,82,0.00,,,0.00,WUHU216HW,2013-01-09 22:34:00,
2013-01-09 17:39:00,47.8,42.5,0.00,SSE,158,0.0,0.0,82,0.00,,,0.00,WUHU216HW,2013-01-09 22:39:00,
2013-01-09 17:44:00,47.8,42.5,0.00,North,0,0.0,0.0,82,0.00,,,0.00,WUHU216HW,2013-01-09 22:44:00,
2013-01-09 17:49:00,47.6,42.4,0.00,SSE,158,0.0,0.0,82,0.00,,,0.00,WUHU216HW,2013-01-09 22:49:00,
2013-01-09 17:54:00,47.6,42.4,0.00,SSE,158,0.0,0.0,82,0.00,,,0.00,WUHU216HW,2013-01-09 22:54:00,
2013-01-09 17:59:00,47.4,42.2,0.00,SSE,158,0.0,0.0,82,0.00,,,0.00,WUHU216HW,2013-01-09 22:59:00,
2013-01-09 18:04:00,47.3,42.0,0.00,SSE,158,0.0,0.0,82,0.00,,,0.00,WUHU216HW,2013-01-09 23:04:00,
2013-01-09 18:09:00,47.1,41.9,0.00,SSE,158,0.0,0.0,82,0.00,,,0.00,WUHU216HW,2013-01-09 23:09:00,
2013-01-09 18:14:00,47.1,42.2,0.00,SSE,158,0.0,0.0,83,0.00,,,0.00,WUHU216HW,2013-01-09 23:14:00,
2013-01-09 18:19:00,47.1,42.2,0.00,SSE,158,0.0,0.0,83,0.00,,,0.00,WUHU216HW,2013-01-09 23:19:00,
2013-01-09 18:24:00,46.9,42.0,0.00,SSE,158,0.0,0.0,83,0.00,,,0.00,WUHU216HW,2013-01-09 23:24:00,
2013-01-09 18:29:00,46.9,42.0,0.00,SSE,158,0.0,0.0,83,0.00,,,0.00,WUHU216HW,2013-01-09 23:29:00,
2013-01-09 18:34:00,46.9,42.0,0.00,SSE,158,0.0,0.0,83,0.00,,,0.00,WUHU216HW,2013-01-09 23:34:00,
2013-01-09 18:39:00,46.9,42.0,0.00,SSE,158,0.0,0.0,83,0.00,,,0.00,WUHU216HW,2013-01-09 23:39:00,
2013-01-09 18:44:00,46.9,42.0,0.00,SSE,158,0.0,0.0,83,0.00,,,0.00,WUHU216HW,2013-01-09 23:44:00,
2013-01-09 18:49:00,46.7,41.8,0.00,SSE,158,0.0,0.0,83,0.00,,,0.00,WUHU216HW,2013-01-09 23:49:00,
2013-01-09 18:54:00,46.7,41.8,0.00,SSE,158,0.0,0.0,83,0.00,,,0.00,WUHU216HW,2013-01-09 23:54:00,
2013-01-09 18:59:00,46.5,41.7,0.00,SSE,158,0.0,0.0,83,0.00,,,0.00,WUHU216HW,2013-01-09 23:59:00,
2013-01-09 19:04:00,46.7,41.8,0.00,SSE,158,0.0,0.0,83,0.00,,,0.00,WUHU216HW,2013-01-10 00:04:00,
2013-01-09 19:09:00,46.5,41.7,0.00,SSE,158,0.0,0.0,83,0.00,,,0.00,WUHU216HW,2013-01-10 00:09:00,
2013-01-09 19:14:00,46.7,41.8,0.00,SSE,158,0.0,0.0,83,0.00,,,0.00,WUHU216HW,2013-01-10 00:14:00,
2013-01-09 19:19:00,46.7,41.8,0.00,SSE,158,0.0,0.0,83,0.00,,,0.00,WUHU216HW,2013-01-10 00:19:00,
2013-01-09 19:24:00,46.9,42.0,0.00,SSE,158,0.0,0.0,83,0.00,,,0.00,WUHU216HW,2013-01-10 00:24:00,
2013-01-09 19:29:00,46.9,42.0,0.00,SSE,158,0.0,0.0,83,0.00,,,0.00,WUHU216HW,2013-01-10 00:29:00,
2013-01-09 19:34:00,46.9,42.0,0.00,SSE,158,0.0,0.0,83,0.00,,,0.00,WUHU216HW,2013-01-10 00:34:00,
2013-01-09 19:39:00,46.7,41.8,0.00,SSE,158,0.0,0.0,83,0.00,,,0.00,WUHU216HW,2013-01-10 00:39:00,
2013-01-09 19:44:00,46.7,41.8,0.00,SSE,158,0.0,0.0,83,0.00,,,0.00,WUHU216HW,2013-01-10 00:44:00,
2013-01-09 19:49:00,46.7,41.8,0.00,SSE,158,0.0,0.0,83,0.00,,,0.00,WUHU216HW,2013-01-10 00:49:00,
2013-01-09 19:54:00,46.5,41.7,0.00,SSE,158,0.0,0.0,83,0.00,,,0.00,WUHU216HW,2013-01-10 00:54:00,
2013-01-09 19:59:00,46.5,41.7,0.00,SSE,158,0.0,0.0,83,0.00,,,0.00,WUHU216HW,2013-01-10 00:59:00,
2013-01-09 20:04:00,46.5,41.7,0.00,SSE,158,0.0,0.0,83,0.00,,,0.00,WUHU216HW,2013-01-10 01:04:00,
2013-01-09 20:09:00,46.5,41.7,0.00,SSE,158,0.0,0.0,83,0.00,,,0.00,WUHU216HW,2013-01-10 01:09:00,
2013-01-09 20:14:00,46.5,41.7,0.00,SSE,158,0.0,0.0,83,0.00,,,0.00,WUHU216HW,2013-01-10 01:14:00,
2013-01-09 20:19:00,46.5,41.7,0.00,SSE,158,0.0,0.0,83,0.00,,,0.00,WUHU216HW,2013-01-10 01:19:00,
2013-01-09 20:24:00,46.4,41.5,0.00,SSE,158,0.0,0.0,83,0.00,,,0.00,WUHU216HW,2013-01-10 01:24:00,
2013-01-09 20:29:00,46.2,41.3,0.00,SSE,158,0.0,0.0,83,0.00,,,0.00,WUHU216HW,2013-01-10 01:29:00,
2013-01-09 20:34:00,46.2,41.3,0.00,SSE,158,0.0,0.0,83,0.00,,,0.00,WUHU216HW,2013-01-10 01:34:00,
2013-01-09 20:39:00,46.2,41.3,0.00,SSE,158,0.0,0.0,83,0.00,,,0.00,WUHU216HW,2013-01-10 01:39:00,
2013-01-09 20:44:00,46.0,41.5,0.00,SSE,158,0.0,0.0,84,0.00,,,0.00,WUHU216HW,2013-01-10 01:44:00,
2013-01-09 20:49:00,46.0,41.5,0.00,SSE,158,0.0,0.0,84,0.00,,,0.00,WUHU216HW,2013-01-10 01:49:00,
2013-01-09 20:54:00,45.6,41.1,0.00,SSE,158,0.0,0.0,84,0.00,,,0.00,WUHU216HW,2013-01-10 01:54:00,
2013-01-09 20:59:00,45.6,41.1,0.00,SSE,158,0.0,0.0,84,0.00,,,0.00,WUHU216HW,2013-01-10 01:59:00,
2013-01-09 21:04:00,45.5,40.9,0.00,SSE,158,0.0,0.0,84,0.00,,,0.00,WUHU216HW,2013-01-10 02:04:00,
2013-01-09 21:09:00,45.5,40.9,0.00,SSE,158,0.0,0.0,84,0.00,,,0.00,WUHU216HW,2013-01-10 02:09:00,
2013-01-09 21:14:00,45.5,40.9,0.00,SSE,158,0.0,0.0,84,0.00,,,0.00,WUHU216HW,2013-01-10 02:14:00,
2013-01-09 21:19:00,45.5,40.9,0.00,SSE,158,0.0,0.0,84,0.00,,,0.00,WUHU216HW,2013-01-10 02:19:00,
2013-01-09 21:24:00,45.5,40.9,0.00,SSE,158,0.0,0.0,84,0.00,,,0.00,WUHU216HW,2013-01-10 02:24:00,
2013-01-09 21:29:00,45.6,41.1,0.00,SSE,158,0.0,0.0,84,0.00,,,0.00,WUHU216HW,2013-01-10 02:29:00,
2013-01-09 21:34:00,45.5,40.9,0.00,SSE,158,0.0,0.0,84,0.00,,,0.00,WUHU216HW,2013-01-10 02:34:00,
2013-01-09 21:39:00,45.5,40.9,0.00,SSE,158,0.0,0.0,84,0.00,,,0.00,WUHU216HW,2013-01-10 02:39:00,
2013-01-09 21:44:00,45.5,41.2,0.00,SSE,158,0.0,0.0,85,0.00,,,0.00,WUHU216HW,2013-01-10 02:44:00,
2013-01-09 21:49:00,45.5,41.2,0.00,SSE,158,0.0,0.0,85,0.00,,,0.00,WUHU216HW,2013-01-10 02:49:00,
2013-01-09 21:54:00,45.6,41.4,0.00,SSE,158,0.0,0.0,85,0.00,,,0.00,WUHU216HW,2013-01-10 02:54:00,
2013-01-09 21:59:00,45.5,41.2,0.00,SSE,158,0.0,0.0,85,0.00,,,0.00,WUHU216HW,2013-01-10 02:59:00,
2013-01-09 22:04:00,45.5,41.2,0.00,SSE,158,0.0,0.0,85,0.00,,,0.00,WUHU216HW,2013-01-10 03:04:00,
2013-01-09 22:09:00,45.6,41.4,0.00,SSE,158,0.0,0.0,85,0.00,,,0.00,WUHU216HW,2013-01-10 03:09:00,
2013-01-09 22:14:00,45.6,41.4,0.00,SSE,158,0.0,0.0,85,0.00,,,0.00,WUHU216HW,2013-01-10 03:14:00,
2013-01-09 22:19:00,45.6,41.4,0.00,SSE,158,0.0,0.0,85,0.00,,,0.00,WUHU216HW,2013-01-10 03:19:00,
2013-01-09 22:24:00,45.6,41.4,0.00,SSE,158,0.0,0.0,85,0.00,,,0.00,WUHU216HW,2013-01-10 03:24:00,
2013-01-09 22:29:00,45.6,41.4,0.00,SSE,158,0.0,0.0,85,0.00,,,0.00,WUHU216HW,2013-01-10 03:29:00,
2013-01-09 22:34:00,46.0,41.8,0.00,SSE,158,0.0,0.0,85,0.00,,,0.00,WUHU216HW,2013-01-10 03:34:00,
2013-01-09 22:39:00,46.0,41.8,0.00,SSE,158,0.0,0.0,85,0.00,,,0.00,WUHU216HW,2013-01-10 03:39:00,
2013-01-09 22:44:00,46.0,41.8,0.00,SSE,158,0.0,0.0,85,0.00,,,0.00,WUHU216HW,2013-01-10 03:44:00,
2013-01-09 22:49:00,46.0,41.8,0.00,SSE,158,0.0,0.0,85,0.00,,,0.00,WUHU216HW,2013-01-10 03:49:00,
2013-01-09 22:54:00,46.0,41.8,0.00,SSE,158,0.0,0.0,85,0.00,,,0.00,WUHU216HW,2013-01-10 03:54:00,
2013-01-09 22:59:00,46.0,41.8,0.00,SSE,158,0.0,0.0,85,0.00,,,0.00,WUHU216HW,2013-01-10 03:59:00,
2013-01-09 23:04:00,46.0,41.8,0.00,SSE,158,0.0,0.0,85,0.00,,,0.00,WUHU216HW,2013-01-10 04:04:00,
2013-01-09 23:09:00,46.0,41.8,0.00,SSE,158,0.0,0.0,85,0.00,,,0.00,WUHU216HW,2013-01-10 04:09:00,
2013-01-09 23:14:00,46.0,41.8,0.00,SSE,158,0.0,0.0,85,0.00,,,0.00,WUHU216HW,2013-01-10 04:14:00,
2013-01-09 23:19:00,46.0,41.8,0.00,SSE,158,0.0,0.0,85,0.00,,,0.00,WUHU216HW,2013-01-10 04:19:00,
2013-01-09 23:24:00,46.2,41.9,0.00,SSE,158,0.0,0.0,85,0.00,,,0.00,WUHU216HW,2013-01-10 04:24:00,
2013-01-09 23:29:00,46.2,41.9,0.00,SSE,158,0.0,0.0,85,0.00,,,0.00,WUHU216HW,2013-01-10 04:29:00,
2013-01-09 23:34:00,46.0,41.8,0.00,SSE,158,0.0,0.0,85,0.00,,,0.00,WUHU216HW,2013-01-10 04:34:00,
2013-01-09 23:39:00,46.0,41.8,0.00,SSE,158,0.0,0.0,85,0.00,,,0.00,WUHU216HW,2013-01-10 04:39:00,
2013-01-09 23:44:00,46.0,41.8,0.00,SSE,158,0.0,0.0,85,0.00,,,0.00,WUHU216HW,2013-01-10 04:44:00,
2013-01-09 23:49:00,46.0,41.8,0.00,SSE,158,0.0,0.0,85,0.00,,,0.00,WUHU216HW,2013-01-10 04:49:00,
2013-01-09 23:54:00,46.0,41.8,0.00,SSE,158,0.0,0.0,85,0.00,,,0.00,WUHU216HW,2013-01-10 04:54:00,
2013-01-09 23:59:00,46.0,41.8,0.00,SSE,158,0.0,0.0,85,0.00,,,0.00,WUHU216HW,2013-01-10 04:59:00,